Location: Casilda
(33.0440°S, 61.1680°W)
Time: 13:53:53
(UTC-03:00)

ISS - Pass Details

Date: 25 September 2020
Orbit: 419 x 421 km, 51.6° (Epoch: 27 September)

Event Time Altitude Azimuth Distance (km) Brightness Sun altitude
Exits shadow 05:46:59 23° 251° (WSW) 966 -2.4 -13.8°
Maximum altitude 05:48:06 28° 217° (SW) 844 -2.5 -13.6°
Drops below altitude 10° 05:51:06 10° 156° (SSE) 1,529 -0.4 -13.0°
Sets 05:53:26 0° 143° (SE) 2,401 0.8 -12.5°
